SRV160M LIPY-LPPT

Flight info

Callsign SRV160M
Flight time 3h 5m
Altitude 37000
Route PIS DCT TALEP DCT BALEN DCT PECES/N0458F390 DCT 37N000E 36N005W/N0457F400 36N006W DCT 37N009W DCT ESP
Aircraft B738/M-SDE2E3FGHIRWXY/LB1

Departure

Time 2026-04-16 12:19
Airport Marche Airport (LIPY)

Arrival

Time 2026-04-16 15:24
Airport Lisbon Humberto Delgado Airport (LPPT)
Time Latitude Longitude Altitude Speed Heading
2026-04-16 12:04 43.60899 13.35660 52 ft 0 kts 109°
2026-04-16 12:16 43.60899 13.35677 52 ft 2 kts 78°
2026-04-16 12:16 43.60911 13.35682 50 ft 1 kts 349°
2026-04-16 12:16 43.60916 13.35674 50 ft 1 kts 313°
2026-04-16 12:16 43.60930 13.35653 52 ft 4 kts 309°
2026-04-16 12:17 43.60936 13.35602 53 ft 7 kts 250°
2026-04-16 12:17 43.60891 13.35531 49 ft 14 kts 225°
2026-04-16 12:17 43.60808 13.35416 53 ft 18 kts 225°
2026-04-16 12:17 43.60724 13.35300 55 ft 12 kts 225°
2026-04-16 12:18 43.60735 13.35207 55 ft 11 kts 307°
2026-04-16 12:18 43.60787 13.35128 53 ft 10 kts 316°
2026-04-16 12:18 43.60825 13.35119 52 ft 6 kts 47°
2026-04-16 12:18 43.60886 13.35211 53 ft 38 kts 46°
2026-04-16 12:19 43.61284 13.35757 49 ft 118 kts 45°
2026-04-16 12:19 43.62031 13.36789 111 ft 187 kts 41°
2026-04-16 12:19 43.62969 13.38081 829 ft 184 kts 40°
2026-04-16 12:19 43.63880 13.39323 1643 ft 189 kts 43°
2026-04-16 12:20 43.64806 13.40596 2787 ft 196 kts 43°
2026-04-16 12:20 43.65802 13.41943 3599 ft 203 kts 39°
2026-04-16 12:20 43.67072 13.42860 4239 ft 213 kts 13°
2026-04-16 12:20 43.68548 13.42882 5160 ft 214 kts 348°
2026-04-16 12:21 43.69479 13.42390 5723 ft 220 kts 331°
2026-04-16 12:21 43.70600 13.40897 6535 ft 230 kts 303°
2026-04-16 12:21 43.71051 13.38770 7386 ft 236 kts 271°
2026-04-16 12:21 43.70823 13.36506 8217 ft 241 kts 259°
2026-04-16 12:22 43.70454 13.34227 9063 ft 244 kts 257°
2026-04-16 12:22 43.70070 13.31929 9951 ft 246 kts 257°
2026-04-16 12:22 43.69688 13.29606 10748 ft 249 kts 257°
2026-04-16 12:22 43.69311 13.27255 11520 ft 253 kts 258°
2026-04-16 12:23 43.68933 13.24867 12320 ft 256 kts 258°
2026-04-16 12:23 43.68557 13.22457 13159 ft 258 kts 258°
2026-04-16 12:23 43.68184 13.20046 13969 ft 261 kts 258°
2026-04-16 12:23 43.67803 13.17578 14699 ft 264 kts 258°
2026-04-16 12:24 43.67421 13.15092 15456 ft 266 kts 258°
2026-04-16 12:24 43.67035 13.12591 16211 ft 267 kts 258°
2026-04-16 12:24 43.66645 13.10063 16947 ft 270 kts 258°
2026-04-16 12:24 43.66255 13.07515 17694 ft 272 kts 260°
2026-04-16 12:25 43.66081 13.04872 18194 ft 285 kts 269°
2026-04-16 12:25 43.66106 13.02016 18388 ft 309 kts 272°
2026-04-16 12:25 43.66189 12.98944 18557 ft 331 kts 272°
2026-04-16 12:25 43.66285 12.95658 18701 ft 353 kts 272°
2026-04-16 12:26 43.66378 12.92176 18852 ft 373 kts 272°
2026-04-16 12:26 43.66464 12.88497 18980 ft 392 kts 272°
2026-04-16 12:26 43.66542 12.84644 19101 ft 410 kts 271°
2026-04-16 12:26 43.66613 12.80644 19356 ft 422 kts 271°
2026-04-16 12:27 43.66678 12.76628 19863 ft 425 kts 271°
2026-04-16 12:27 43.66739 12.72539 20466 ft 427 kts 271°
2026-04-16 12:27 43.66798 12.68419 20982 ft 430 kts 271°
2026-04-16 12:27 43.66855 12.64269 21468 ft 434 kts 271°
2026-04-16 12:28 43.66910 12.60081 21956 ft 437 kts 271°
2026-04-16 12:28 43.66965 12.55867 22428 ft 441 kts 271°
2026-04-16 12:28 43.67019 12.51612 22885 ft 444 kts 271°
2026-04-16 12:28 43.67072 12.47323 23342 ft 448 kts 272°
2026-04-16 12:29 43.67123 12.43007 23755 ft 452 kts 272°
2026-04-16 12:29 43.67174 12.38652 24096 ft 455 kts 272°
2026-04-16 12:29 43.67223 12.34261 24436 ft 459 kts 272°
2026-04-16 12:29 43.67270 12.29839 24764 ft 462 kts 273°
2026-04-16 12:30 43.67316 12.25392 25157 ft 464 kts 272°
2026-04-16 12:30 43.67360 12.20931 25532 ft 465 kts 272°
2026-04-16 12:30 43.67404 12.16440 25860 ft 468 kts 272°
2026-04-16 12:30 43.67445 12.11934 26182 ft 471 kts 272°
2026-04-16 12:31 43.67485 12.07441 26507 ft 473 kts 272°
2026-04-16 12:31 43.67523 12.02892 26858 ft 475 kts 272°
2026-04-16 12:31 43.67560 11.98315 27182 ft 477 kts 272°
2026-04-16 12:31 43.67594 11.93728 27501 ft 479 kts 272°
2026-04-16 12:32 43.67628 11.89123 27800 ft 481 kts 272°
2026-04-16 12:32 43.67659 11.84497 28156 ft 481 kts 272°
2026-04-16 12:32 43.67688 11.79881 28642 ft 478 kts 272°
2026-04-16 12:32 43.67715 11.75298 29162 ft 476 kts 272°
2026-04-16 12:33 43.67740 11.70732 29639 ft 474 kts 272°
2026-04-16 12:33 43.67763 11.66175 30073 ft 473 kts 272°
2026-04-16 12:33 43.67785 11.61623 30476 ft 472 kts 272°
2026-04-16 12:33 43.67805 11.57090 30861 ft 471 kts 272°
2026-04-16 12:34 43.67823 11.52627 31205 ft 470 kts 272°
2026-04-16 12:34 43.67840 11.48102 31557 ft 469 kts 272°
2026-04-16 12:34 43.67855 11.43604 31930 ft 468 kts 272°
2026-04-16 12:34 43.67867 11.39116 32306 ft 467 kts 272°
2026-04-16 12:35 43.67879 11.34634 32679 ft 466 kts 272°
2026-04-16 12:35 43.67888 11.30157 33017 ft 465 kts 271°
2026-04-16 12:35 43.67896 11.25681 33351 ft 465 kts 271°
2026-04-16 12:35 43.67901 11.21225 33709 ft 464 kts 271°
2026-04-16 12:36 43.67905 11.16781 34077 ft 462 kts 271°
2026-04-16 12:36 43.67907 11.12334 34383 ft 461 kts 271°
2026-04-16 12:36 43.67908 11.07909 34665 ft 461 kts 271°
2026-04-16 12:36 43.67907 11.03485 34963 ft 460 kts 271°
2026-04-16 12:37 43.67904 10.99115 35265 ft 458 kts 271°
2026-04-16 12:37 43.67900 10.94717 35553 ft 457 kts 271°
2026-04-16 12:37 43.67894 10.90330 35820 ft 457 kts 271°
2026-04-16 12:37 43.67886 10.85936 36096 ft 456 kts 271°
2026-04-16 12:38 43.67877 10.81563 36391 ft 454 kts 271°
2026-04-16 12:38 43.67866 10.77198 36689 ft 453 kts 271°
2026-04-16 12:38 43.67853 10.72854 36973 ft 452 kts 271°
2026-04-16 12:38 43.67839 10.68574 37101 ft 453 kts 271°
2026-04-16 12:39 43.67805 10.59873 37098 ft 452 kts 271°
2026-04-16 12:39 43.67766 10.51218 37102 ft 449 kts 270°
2026-04-16 12:40 43.67721 10.42612 37105 ft 447 kts 270°
2026-04-16 12:40 43.67214 10.34060 37112 ft 446 kts 262°
2026-04-16 12:41 43.66146 10.25614 37105 ft 446 kts 261°
2026-04-16 12:41 43.65059 10.17239 37104 ft 445 kts 261°
2026-04-16 12:42 43.64001 10.08816 37106 ft 446 kts 261°
2026-04-16 12:42 43.62955 10.00373 37109 ft 446 kts 261°
2026-04-16 12:43 43.61907 9.91914 37112 ft 447 kts 261°
2026-04-16 12:43 43.60850 9.83443 37114 ft 448 kts 261°
2026-04-16 12:44 43.59784 9.74961 37115 ft 449 kts 261°
2026-04-16 12:44 43.58709 9.66469 37119 ft 449 kts 261°
2026-04-16 12:45 43.57635 9.58033 37120 ft 449 kts 261°
2026-04-16 12:45 43.56548 9.49549 37119 ft 449 kts 261°
2026-04-16 12:46 43.55454 9.41053 37118 ft 449 kts 261°
2026-04-16 12:46 43.54354 9.32570 37121 ft 449 kts 261°
2026-04-16 12:47 43.53248 9.24093 37124 ft 449 kts 261°
2026-04-16 12:47 43.52142 9.15663 37122 ft 449 kts 261°
2026-04-16 12:48 43.51021 9.07174 37123 ft 449 kts 261°
2026-04-16 12:48 43.49896 8.98698 37127 ft 450 kts 261°
2026-04-16 12:49 43.48764 8.90221 37126 ft 450 kts 261°
2026-04-16 12:49 43.47625 8.81738 37124 ft 450 kts 261°
2026-04-16 12:50 43.46086 8.73392 37123 ft 452 kts 246°
2026-04-16 12:50 43.42541 8.66302 37117 ft 457 kts 225°
2026-04-16 12:51 43.37848 8.60374 37126 ft 459 kts 223°
2026-04-16 12:51 43.33084 8.54514 37126 ft 460 kts 223°
2026-04-16 12:52 43.28342 8.48613 37126 ft 460 kts 224°
2026-04-16 12:52 43.23615 8.42679 37122 ft 460 kts 224°
2026-04-16 12:53 43.18892 8.36741 37126 ft 460 kts 224°
2026-04-16 12:53 43.14167 8.30813 37123 ft 460 kts 224°
2026-04-16 12:54 43.09472 8.24938 37124 ft 460 kts 224°
2026-04-16 12:54 43.04733 8.19022 37124 ft 460 kts 224°
2026-04-16 12:55 42.99996 8.13123 37124 ft 461 kts 224°
2026-04-16 12:55 42.95248 8.07222 37125 ft 461 kts 224°
2026-04-16 12:56 42.90501 8.01335 37125 ft 461 kts 224°
2026-04-16 12:56 42.85777 7.95490 37121 ft 461 kts 224°
2026-04-16 12:57 42.81019 7.89614 37124 ft 462 kts 223°
2026-04-16 12:57 42.76253 7.83743 37123 ft 462 kts 223°
2026-04-16 12:58 42.71478 7.77873 37123 ft 462 kts 223°
2026-04-16 12:58 42.66700 7.72012 37125 ft 462 kts 223°
2026-04-16 12:59 42.61950 7.66198 37123 ft 463 kts 223°
2026-04-16 13:00 42.54768 7.57429 37123 ft 463 kts 223°
2026-04-16 13:00 42.49963 7.51579 37128 ft 463 kts 223°
2026-04-16 13:01 42.45156 7.45739 37128 ft 464 kts 223°
2026-04-16 13:01 42.40349 7.39912 37126 ft 464 kts 223°
2026-04-16 13:02 42.35536 7.34090 37125 ft 464 kts 223°
2026-04-16 13:02 42.30746 7.28308 37125 ft 464 kts 223°
2026-04-16 13:03 42.25911 7.22484 37126 ft 465 kts 223°
2026-04-16 13:03 42.21083 7.16681 37120 ft 465 kts 223°
2026-04-16 13:04 42.16249 7.10883 37124 ft 465 kts 223°
2026-04-16 13:04 42.11411 7.05092 37129 ft 465 kts 223°
2026-04-16 13:05 42.06592 6.99338 37129 ft 466 kts 223°
2026-04-16 13:05 42.01739 6.93554 37131 ft 466 kts 223°
2026-04-16 13:06 41.96885 6.87781 37131 ft 466 kts 223°
2026-04-16 13:06 41.92021 6.82009 37123 ft 466 kts 223°
2026-04-16 13:07 41.87157 6.76249 37127 ft 466 kts 223°
2026-04-16 13:07 41.83102 6.71456 37134 ft 467 kts 223°
2026-04-16 13:08 41.78226 6.65705 37126 ft 467 kts 223°
2026-04-16 13:08 41.73347 6.59962 37126 ft 467 kts 223°
2026-04-16 13:09 41.68458 6.54218 37130 ft 467 kts 223°
2026-04-16 13:09 41.63564 6.48481 37130 ft 468 kts 223°
2026-04-16 13:10 41.58659 6.42743 37132 ft 468 kts 223°
2026-04-16 13:10 41.53791 6.37061 37129 ft 468 kts 223°
2026-04-16 13:11 41.48882 6.31343 37128 ft 468 kts 223°
2026-04-16 13:11 41.43970 6.25633 37142 ft 469 kts 223°
2026-04-16 13:12 41.39047 6.19922 37131 ft 469 kts 223°
2026-04-16 13:12 41.34121 6.14219 37143 ft 469 kts 223°
2026-04-16 13:13 41.29193 6.08527 37146 ft 469 kts 223°
2026-04-16 13:13 41.24248 6.02826 37137 ft 470 kts 223°
2026-04-16 13:14 41.19332 5.97170 37130 ft 470 kts 223°
2026-04-16 13:14 41.14386 5.91492 37150 ft 470 kts 223°
2026-04-16 13:15 41.09428 5.85811 37155 ft 471 kts 222°
2026-04-16 13:15 41.04464 5.80134 37152 ft 471 kts 222°
2026-04-16 13:16 40.99503 5.74471 37153 ft 470 kts 222°
2026-04-16 13:16 40.94490 5.68894 37151 ft 471 kts 217°
2026-04-16 13:17 40.88871 5.64516 37163 ft 473 kts 210°
2026-04-16 13:17 40.83074 5.60384 37163 ft 473 kts 210°
2026-04-16 13:18 40.77286 5.56232 37165 ft 473 kts 210°
2026-04-16 13:18 40.71518 5.52044 37169 ft 473 kts 210°
2026-04-16 13:19 40.65752 5.47842 37168 ft 473 kts 210°
2026-04-16 13:19 40.59988 5.43647 37167 ft 473 kts 210°
2026-04-16 13:20 40.54221 5.39460 37174 ft 473 kts 210°
2026-04-16 13:20 40.48470 5.35295 37177 ft 474 kts 210°
2026-04-16 13:21 40.42696 5.31121 37177 ft 474 kts 210°
2026-04-16 13:21 40.36918 5.26954 37178 ft 474 kts 210°
2026-04-16 13:22 40.31159 5.22808 37183 ft 474 kts 210°
2026-04-16 13:22 40.25378 5.18654 37185 ft 474 kts 210°
2026-04-16 13:23 40.19585 5.14500 37187 ft 474 kts 210°
2026-04-16 13:23 40.13786 5.10349 37183 ft 474 kts 210°
2026-04-16 13:24 40.07993 5.06212 37187 ft 474 kts 210°
2026-04-16 13:24 40.02195 5.02079 37192 ft 474 kts 210°
2026-04-16 13:25 39.96394 4.97951 37191 ft 475 kts 210°
2026-04-16 13:25 39.90625 4.93854 37193 ft 475 kts 210°
2026-04-16 13:26 39.84816 4.89738 37192 ft 475 kts 210°
2026-04-16 13:26 39.79001 4.85624 37194 ft 475 kts 210°
2026-04-16 13:27 39.73192 4.81523 37197 ft 475 kts 210°
2026-04-16 13:27 39.67416 4.77452 37195 ft 475 kts 210°
2026-04-16 13:28 39.61593 4.73358 37198 ft 476 kts 210°
2026-04-16 13:28 39.55767 4.69268 37201 ft 476 kts 210°
2026-04-16 13:29 39.49932 4.65180 37204 ft 476 kts 210°
2026-04-16 13:29 39.44139 4.61129 37202 ft 476 kts 210°
2026-04-16 13:30 39.38301 4.57055 37202 ft 476 kts 210°
2026-04-16 13:30 39.32457 4.52984 37203 ft 476 kts 210°
2026-04-16 13:31 39.26654 4.48949 37205 ft 476 kts 210°
2026-04-16 13:31 39.20810 4.44894 37205 ft 477 kts 210°
2026-04-16 13:32 39.14968 4.40848 37207 ft 477 kts 210°
2026-04-16 13:32 39.09122 4.36806 37210 ft 477 kts 211°
2026-04-16 13:33 39.03272 4.32770 37208 ft 477 kts 210°
2026-04-16 13:33 38.97420 4.28740 37210 ft 477 kts 210°
2026-04-16 13:34 38.91561 4.24712 37212 ft 477 kts 211°
2026-04-16 13:34 38.85705 4.20695 37211 ft 477 kts 211°
2026-04-16 13:35 38.79846 4.16682 37216 ft 477 kts 211°
2026-04-16 13:35 38.74018 4.12698 37215 ft 477 kts 211°
2026-04-16 13:36 38.68150 4.08694 37214 ft 478 kts 211°
2026-04-16 13:36 38.62263 4.04685 37215 ft 478 kts 211°
2026-04-16 13:37 38.56397 4.00696 37217 ft 478 kts 211°
2026-04-16 13:37 38.50662 3.96515 37205 ft 474 kts 221°
2026-04-16 13:37 38.48271 3.93667 37230 ft 468 kts 232°
2026-04-16 13:38 38.46333 3.90357 37219 ft 463 kts 243°
2026-04-16 13:38 38.43630 3.82975 37219 ft 459 kts 250°
2026-04-16 13:39 38.41073 3.75487 37216 ft 460 kts 250°
2026-04-16 13:39 38.38478 3.68019 37215 ft 460 kts 250°
2026-04-16 13:40 38.36072 3.61200 37228 ft 460 kts 249°
2026-04-16 13:40 38.33404 3.53691 37221 ft 460 kts 249°
2026-04-16 13:41 38.30751 3.46248 37221 ft 460 kts 249°
2026-04-16 13:41 38.28112 3.38860 37222 ft 460 kts 249°
2026-04-16 13:42 38.25463 3.31459 37217 ft 459 kts 249°
2026-04-16 13:42 38.22812 3.24070 37225 ft 458 kts 249°
2026-04-16 13:43 38.20160 3.16695 37225 ft 458 kts 249°
2026-04-16 13:43 38.17504 3.09330 37226 ft 457 kts 249°
2026-04-16 13:44 38.14853 3.01992 37228 ft 457 kts 249°
2026-04-16 13:44 38.12214 2.94709 37226 ft 456 kts 249°
2026-04-16 13:45 38.09553 2.87384 37225 ft 456 kts 249°
2026-04-16 13:45 38.06895 2.80082 37224 ft 455 kts 249°
2026-04-16 13:46 38.04231 2.72781 37227 ft 455 kts 249°
2026-04-16 13:46 38.01568 2.65504 37225 ft 455 kts 249°
2026-04-16 13:47 37.98910 2.58254 37222 ft 454 kts 249°
2026-04-16 13:47 37.96240 2.50991 37225 ft 454 kts 249°
2026-04-16 13:48 37.93585 2.43785 37226 ft 454 kts 249°
2026-04-16 13:48 37.90908 2.36537 37227 ft 453 kts 249°
2026-04-16 13:49 37.88232 2.29310 37224 ft 453 kts 249°
2026-04-16 13:49 37.85555 2.22098 37226 ft 452 kts 249°
2026-04-16 13:50 37.82874 2.14891 37221 ft 452 kts 249°
2026-04-16 13:50 37.80213 2.07753 37223 ft 451 kts 249°
2026-04-16 13:51 37.77529 2.00572 37224 ft 451 kts 249°
2026-04-16 13:51 37.74844 1.93404 37227 ft 451 kts 249°
2026-04-16 13:52 37.72154 1.86241 37227 ft 450 kts 249°
2026-04-16 13:52 37.69480 1.79135 37228 ft 450 kts 249°
2026-04-16 13:53 37.66786 1.71996 37228 ft 450 kts 249°
2026-04-16 13:53 37.64091 1.64867 37223 ft 450 kts 249°
2026-04-16 13:54 37.61382 1.57720 37223 ft 449 kts 249°
2026-04-16 13:54 37.58697 1.50652 37223 ft 449 kts 249°
2026-04-16 13:55 37.56436 1.44712 37220 ft 449 kts 249°
2026-04-16 13:55 37.53291 1.36471 37223 ft 448 kts 249°
2026-04-16 13:56 37.51045 1.30597 37222 ft 447 kts 249°
2026-04-16 13:56 37.48335 1.23527 37220 ft 447 kts 249°
2026-04-16 13:57 37.45631 1.16487 37220 ft 446 kts 249°
2026-04-16 13:57 37.42943 1.09504 37218 ft 445 kts 249°
2026-04-16 13:58 37.39014 0.99326 37216 ft 444 kts 249°
2026-04-16 13:58 37.36309 0.92337 37212 ft 444 kts 249°
2026-04-16 13:59 37.33604 0.85364 37208 ft 443 kts 249°
2026-04-16 13:59 37.30910 0.78437 37209 ft 443 kts 249°
2026-04-16 14:00 37.28201 0.71484 37217 ft 442 kts 249°
2026-04-16 14:00 37.25493 0.64550 37215 ft 442 kts 249°
2026-04-16 14:01 37.22786 0.57634 37217 ft 441 kts 249°
2026-04-16 14:01 37.20072 0.50717 37213 ft 441 kts 249°
2026-04-16 14:02 37.17362 0.43821 37210 ft 441 kts 249°
2026-04-16 14:02 37.14650 0.36937 37212 ft 440 kts 249°
2026-04-16 14:03 37.11936 0.30064 37211 ft 440 kts 249°
2026-04-16 14:03 37.09220 0.23199 37209 ft 439 kts 249°
2026-04-16 14:04 37.06502 0.16345 37209 ft 439 kts 249°
2026-04-16 14:04 37.03801 0.09544 37212 ft 439 kts 249°
2026-04-16 14:05 37.01070 0.02684 37217 ft 439 kts 249°
2026-04-16 14:05 36.99110 -0.04440 37222 ft 429 kts 262°
2026-04-16 14:06 36.97859 -0.11694 37210 ft 429 kts 262°
2026-04-16 14:06 36.96601 -0.18999 37208 ft 430 kts 262°
2026-04-16 14:07 36.95314 -0.26298 37209 ft 430 kts 261°
2026-04-16 14:07 36.94006 -0.33606 37209 ft 430 kts 261°
2026-04-16 14:08 36.92690 -0.40912 37207 ft 430 kts 261°
2026-04-16 14:08 36.91377 -0.48168 37208 ft 431 kts 261°
2026-04-16 14:09 36.90051 -0.55472 37205 ft 431 kts 261°
2026-04-16 14:09 36.88722 -0.62771 37208 ft 431 kts 261°
2026-04-16 14:10 36.87385 -0.70084 37206 ft 431 kts 261°
2026-04-16 14:10 36.86044 -0.77393 37202 ft 431 kts 261°
2026-04-16 14:11 36.84707 -0.84650 37202 ft 432 kts 260°
2026-04-16 14:11 36.83355 -0.91966 37202 ft 432 kts 260°
2026-04-16 14:12 36.81997 -0.99283 37200 ft 432 kts 260°
2026-04-16 14:12 36.80644 -1.06550 37200 ft 432 kts 260°
2026-04-16 14:13 36.79358 -1.13434 37201 ft 432 kts 260°
2026-04-16 14:13 36.77986 -1.20748 37199 ft 432 kts 260°
2026-04-16 14:14 36.76611 -1.28057 37199 ft 433 kts 259°
2026-04-16 14:14 36.75239 -1.35322 37196 ft 433 kts 259°
2026-04-16 14:15 36.73850 -1.42648 37197 ft 433 kts 259°
2026-04-16 14:15 36.72458 -1.49966 37194 ft 433 kts 259°
2026-04-16 14:16 36.71069 -1.57239 37196 ft 433 kts 259°
2026-04-16 14:16 36.69666 -1.64562 37196 ft 433 kts 259°
2026-04-16 14:17 36.68262 -1.71867 37195 ft 434 kts 259°
2026-04-16 14:17 36.66852 -1.79172 37192 ft 434 kts 259°
2026-04-16 14:18 36.65436 -1.86487 37192 ft 434 kts 258°
2026-04-16 14:18 36.64024 -1.93752 37191 ft 434 kts 258°
2026-04-16 14:19 36.62598 -2.01067 37194 ft 435 kts 258°
2026-04-16 14:19 36.61166 -2.08382 37194 ft 435 kts 258°
2026-04-16 14:20 36.59729 -2.15701 37193 ft 435 kts 258°
2026-04-16 14:20 36.58287 -2.23020 37189 ft 435 kts 258°
2026-04-16 14:21 36.56845 -2.30310 37188 ft 436 kts 258°
2026-04-16 14:21 36.55392 -2.37637 37190 ft 436 kts 258°
2026-04-16 14:22 36.53934 -2.44957 37189 ft 436 kts 258°
2026-04-16 14:22 36.52470 -2.52285 37190 ft 436 kts 257°
2026-04-16 14:23 36.51002 -2.59609 37191 ft 436 kts 257°
2026-04-16 14:23 36.49528 -2.66936 37190 ft 437 kts 257°
2026-04-16 14:24 36.48048 -2.74267 37188 ft 437 kts 257°
2026-04-16 14:24 36.46571 -2.81557 37191 ft 437 kts 257°
2026-04-16 14:25 36.45080 -2.88896 37190 ft 438 kts 257°
2026-04-16 14:25 36.43583 -2.96235 37191 ft 438 kts 257°
2026-04-16 14:26 36.42093 -3.03518 37188 ft 438 kts 257°
2026-04-16 14:26 36.40588 -3.10851 37187 ft 438 kts 257°
2026-04-16 14:27 36.39075 -3.18194 37182 ft 439 kts 257°
2026-04-16 14:27 36.37559 -3.25530 37181 ft 439 kts 256°
2026-04-16 14:28 36.36037 -3.32871 37180 ft 439 kts 256°
2026-04-16 14:28 36.34508 -3.40218 37180 ft 439 kts 256°
2026-04-16 14:29 36.32975 -3.47561 37176 ft 440 kts 256°
2026-04-16 14:29 36.31446 -3.54862 37174 ft 440 kts 256°
2026-04-16 14:30 36.29902 -3.62207 37171 ft 440 kts 256°
2026-04-16 14:30 36.28353 -3.69553 37172 ft 441 kts 256°
2026-04-16 14:31 36.26798 -3.76905 37171 ft 441 kts 256°
2026-04-16 14:31 36.25238 -3.84255 37167 ft 441 kts 256°
2026-04-16 14:32 36.23672 -3.91610 37167 ft 442 kts 256°
2026-04-16 14:32 36.22099 -3.98972 37164 ft 442 kts 256°
2026-04-16 14:33 36.20531 -4.06290 37163 ft 442 kts 255°
2026-04-16 14:33 36.18945 -4.13665 37162 ft 443 kts 255°
2026-04-16 14:34 36.17352 -4.21049 37157 ft 443 kts 255°
2026-04-16 14:34 36.15759 -4.28411 37162 ft 443 kts 255°
2026-04-16 14:35 36.14166 -4.35747 37154 ft 444 kts 255°
2026-04-16 14:35 36.12558 -4.43130 37155 ft 444 kts 255°
2026-04-16 14:36 36.10946 -4.50509 37156 ft 444 kts 255°
2026-04-16 14:36 36.09328 -4.57890 37152 ft 445 kts 255°
2026-04-16 14:37 36.07704 -4.65276 37152 ft 445 kts 255°
2026-04-16 14:37 36.06085 -4.72611 37151 ft 445 kts 255°
2026-04-16 14:38 36.04452 -4.79992 37153 ft 445 kts 255°
2026-04-16 14:38 36.02813 -4.87377 37152 ft 445 kts 255°
2026-04-16 14:39 36.01170 -4.94758 37158 ft 446 kts 254°
2026-04-16 14:39 35.99934 -5.02257 37149 ft 447 kts 266°
2026-04-16 14:40 35.99938 -5.09905 37153 ft 447 kts 270°
2026-04-16 14:40 36.00026 -5.17599 37157 ft 448 kts 270°
2026-04-16 14:41 36.00075 -5.25307 37158 ft 448 kts 269°
2026-04-16 14:41 36.00093 -5.33012 37159 ft 448 kts 269°
2026-04-16 14:42 36.00099 -5.39407 37155 ft 448 kts 269°
2026-04-16 14:42 36.00102 -5.48340 37147 ft 447 kts 269°
2026-04-16 14:43 36.00099 -5.56029 37141 ft 446 kts 268°
2026-04-16 14:43 36.00095 -5.62406 37136 ft 446 kts 269°
2026-04-16 14:44 36.00085 -5.70069 37124 ft 446 kts 269°
2026-04-16 14:44 36.00070 -5.77744 37108 ft 446 kts 268°
2026-04-16 14:45 36.00051 -5.85421 37102 ft 447 kts 268°
2026-04-16 14:45 36.00027 -5.93057 37098 ft 448 kts 268°
2026-04-16 14:46 36.00529 -6.00732 37106 ft 451 kts 281°
2026-04-16 14:46 36.02673 -6.08044 37115 ft 454 kts 292°
2026-04-16 14:47 36.05235 -6.15193 37111 ft 455 kts 292°
2026-04-16 14:47 36.07771 -6.22317 37115 ft 456 kts 292°
2026-04-16 14:48 36.10293 -6.29524 37113 ft 456 kts 291°
2026-04-16 14:48 36.12794 -6.36740 37113 ft 457 kts 291°
2026-04-16 14:49 36.15293 -6.43975 37117 ft 457 kts 291°
2026-04-16 14:49 36.17789 -6.51216 37118 ft 457 kts 291°
2026-04-16 14:50 36.20281 -6.58460 37118 ft 457 kts 291°
2026-04-16 14:50 36.22758 -6.65679 37120 ft 457 kts 291°
2026-04-16 14:51 36.25241 -6.72929 37123 ft 457 kts 291°
2026-04-16 14:51 36.27722 -6.80192 37122 ft 457 kts 291°
2026-04-16 14:53 36.37577 -7.09220 37130 ft 457 kts 291°
2026-04-16 14:54 36.40101 -7.16470 37121 ft 458 kts 297°
2026-04-16 14:54 36.43911 -7.22801 37140 ft 460 kts 310°
2026-04-16 14:55 36.48229 -7.28635 37127 ft 461 kts 311°
2026-04-16 14:55 36.52570 -7.34516 37134 ft 461 kts 310°
2026-04-16 14:56 36.56867 -7.40426 37133 ft 460 kts 310°
2026-04-16 14:56 36.61148 -7.46365 37137 ft 460 kts 310°
2026-04-16 14:57 36.65420 -7.52307 37134 ft 460 kts 310°
2026-04-16 14:57 36.69667 -7.58225 37135 ft 460 kts 310°
2026-04-16 14:58 36.76066 -7.67157 37141 ft 460 kts 310°
2026-04-16 14:59 36.80323 -7.73112 37140 ft 460 kts 310°
2026-04-16 14:59 36.84580 -7.79078 37135 ft 460 kts 310°
2026-04-16 15:00 36.88836 -7.85054 37136 ft 459 kts 310°
2026-04-16 15:00 36.93063 -7.90999 37131 ft 459 kts 310°
2026-04-16 15:01 36.97307 -7.96979 37130 ft 459 kts 310°
2026-04-16 15:01 37.01547 -8.02965 37130 ft 459 kts 310°
2026-04-16 15:02 37.05784 -8.08957 37130 ft 459 kts 309°
2026-04-16 15:02 37.10012 -8.14948 37134 ft 459 kts 309°
2026-04-16 15:03 37.14220 -8.20921 37141 ft 459 kts 309°
2026-04-16 15:03 37.16345 -8.23942 36661 ft 465 kts 309°
2026-04-16 15:03 37.18486 -8.26988 36026 ft 461 kts 310°
2026-04-16 15:03 37.20605 -8.30006 35289 ft 462 kts 310°
2026-04-16 15:04 37.22731 -8.33036 34544 ft 463 kts 310°
2026-04-16 15:04 37.24867 -8.36083 33697 ft 465 kts 310°
2026-04-16 15:04 37.26983 -8.39104 32826 ft 466 kts 310°
2026-04-16 15:04 37.29126 -8.42168 31950 ft 467 kts 310°
2026-04-16 15:05 37.31273 -8.45240 31060 ft 469 kts 310°
2026-04-16 15:05 37.33427 -8.48324 30129 ft 471 kts 310°
2026-04-16 15:05 37.35593 -8.51430 28986 ft 473 kts 310°
2026-04-16 15:05 37.37764 -8.54544 27891 ft 473 kts 310°
2026-04-16 15:06 37.39938 -8.57667 26762 ft 474 kts 310°
2026-04-16 15:06 37.42113 -8.60793 25804 ft 473 kts 310°
2026-04-16 15:06 37.44242 -8.63856 25502 ft 455 kts 310°
2026-04-16 15:06 37.46295 -8.66809 25317 ft 444 kts 309°
2026-04-16 15:07 37.48347 -8.69768 24999 ft 450 kts 310°
2026-04-16 15:07 37.50381 -8.72706 24590 ft 452 kts 309°
2026-04-16 15:07 37.52438 -8.75677 24151 ft 446 kts 310°
2026-04-16 15:07 37.54462 -8.78602 23692 ft 441 kts 310°
2026-04-16 15:08 37.56470 -8.81507 23145 ft 439 kts 309°
2026-04-16 15:08 37.58484 -8.84377 22614 ft 436 kts 313°
2026-04-16 15:08 37.60889 -8.86687 22074 ft 436 kts 330°
2026-04-16 15:08 37.63699 -8.88102 21593 ft 434 kts 340°
2026-04-16 15:09 37.66569 -8.89244 21093 ft 431 kts 341°
2026-04-16 15:09 37.69440 -8.90345 20594 ft 428 kts 341°
2026-04-16 15:09 37.72281 -8.91441 20107 ft 425 kts 341°
2026-04-16 15:09 37.75091 -8.92546 19628 ft 421 kts 341°
2026-04-16 15:10 37.77876 -8.93661 19153 ft 417 kts 340°
2026-04-16 15:10 37.80599 -8.94764 18696 ft 414 kts 340°
2026-04-16 15:10 37.83329 -8.95877 18205 ft 411 kts 340°
2026-04-16 15:10 37.86042 -8.96985 17687 ft 408 kts 340°
2026-04-16 15:11 37.88736 -8.98087 17170 ft 405 kts 340°
2026-04-16 15:11 37.91414 -8.99184 16668 ft 403 kts 340°
2026-04-16 15:11 37.94071 -9.00272 16173 ft 400 kts 340°
2026-04-16 15:11 37.96727 -9.01359 15676 ft 398 kts 340°
2026-04-16 15:12 37.99353 -9.02434 15194 ft 396 kts 340°
2026-04-16 15:12 38.01966 -9.03518 14708 ft 393 kts 340°
2026-04-16 15:12 38.04554 -9.04612 14257 ft 391 kts 339°
2026-04-16 15:12 38.07128 -9.05705 13774 ft 389 kts 340°
2026-04-16 15:13 38.09689 -9.06791 13256 ft 387 kts 340°
2026-04-16 15:13 38.12242 -9.07871 12748 ft 385 kts 340°
2026-04-16 15:13 38.14791 -9.08704 12300 ft 384 kts 353°
2026-04-16 15:13 38.17439 -9.08403 11961 ft 384 kts 14°
2026-04-16 15:14 38.19870 -9.07005 11626 ft 384 kts 32°
2026-04-16 15:14 38.21825 -9.04750 11301 ft 375 kts 48°
2026-04-16 15:14 38.23461 -9.02306 11179 ft 348 kts 50°
2026-04-16 15:14 38.24983 -9.00019 11165 ft 330 kts 49°
2026-04-16 15:15 38.26446 -8.97857 11157 ft 314 kts 49°
2026-04-16 15:15 38.27906 -8.95888 11144 ft 299 kts 35°
2026-04-16 15:15 38.29752 -8.94937 11174 ft 283 kts
2026-04-16 15:15 38.31694 -8.95100 11183 ft 277 kts 344°
2026-04-16 15:16 38.33438 -8.95979 11169 ft 273 kts 325°
2026-04-16 15:16 38.34949 -8.97424 11177 ft 271 kts 319°
2026-04-16 15:16 38.36393 -8.98972 11178 ft 271 kts 317°
2026-04-16 15:16 38.37832 -9.00544 11133 ft 273 kts 317°
2026-04-16 15:17 38.39283 -9.02130 10957 ft 276 kts 317°
2026-04-16 15:17 38.40751 -9.03719 10725 ft 279 kts 317°
2026-04-16 15:17 38.42244 -9.05325 10323 ft 282 kts 317°
2026-04-16 15:17 38.43755 -9.06952 9848 ft 288 kts 318°
2026-04-16 15:18 38.45300 -9.08617 9331 ft 292 kts 317°
2026-04-16 15:18 38.46845 -9.10278 8838 ft 290 kts 317°
2026-04-16 15:18 38.48382 -9.11938 8327 ft 287 kts 317°
2026-04-16 15:18 38.49887 -9.13564 7850 ft 286 kts 318°
2026-04-16 15:19 38.51406 -9.15204 7352 ft 285 kts 318°
2026-04-16 15:19 38.52918 -9.16839 6848 ft 284 kts 317°
2026-04-16 15:19 38.54419 -9.18476 6241 ft 284 kts 318°
2026-04-16 15:19 38.55932 -9.20113 5620 ft 285 kts 318°
2026-04-16 15:20 38.57445 -9.21748 5023 ft 284 kts 318°
2026-04-16 15:20 38.59006 -9.23263 4525 ft 279 kts 334°
2026-04-16 15:20 38.60834 -9.23666 4376 ft 262 kts
2026-04-16 15:20 38.62445 -9.22787 3950 ft 257 kts 38°
2026-04-16 15:21 38.63851 -9.21492 3821 ft 240 kts 30°
2026-04-16 15:21 38.65289 -9.20549 3620 ft 224 kts 25°
2026-04-16 15:21 38.66673 -9.19749 3308 ft 215 kts 25°
2026-04-16 15:21 38.68016 -9.18952 2808 ft 208 kts 24°
2026-04-16 15:22 38.69308 -9.18252 2436 ft 194 kts 22°
2026-04-16 15:22 38.70521 -9.17589 2120 ft 186 kts 24°
2026-04-16 15:22 38.71681 -9.16971 1810 ft 178 kts 19°
2026-04-16 15:22 38.72825 -9.16378 1423 ft 171 kts 21°
2026-04-16 15:23 38.73854 -9.15807 1137 ft 155 kts 21°
2026-04-16 15:23 38.74820 -9.15344 815 ft 144 kts 18°
2026-04-16 15:23 38.75720 -9.14859 542 ft 137 kts 20°
2026-04-16 15:23 38.76576 -9.14415 368 ft 128 kts 19°
2026-04-16 15:24 38.77330 -9.14022 360 ft 100 kts 22°
2026-04-16 15:24 38.77830 -9.13753 364 ft 56 kts 23°
2026-04-16 15:24 38.78098 -9.13611 365 ft 36 kts 23°
2026-04-16 15:24 38.78296 -9.13455 367 ft 32 kts 43°
2026-04-16 15:25 38.78368 -9.13290 366 ft 11 kts 124°
2026-04-16 15:25 38.78294 -9.13288 363 ft 12 kts 213°
2026-04-16 15:25 38.78214 -9.13322 359 ft 13 kts 198°
2026-04-16 15:25 38.78165 -9.13343 361 ft 0 kts 199°
2026-04-16 15:27 38.78163 -9.13345 361 ft 2 kts 203°
2026-04-16 15:27 38.78100 -9.13380 359 ft 15 kts 204°
2026-04-16 15:27 38.77998 -9.13435 357 ft 17 kts 202°
2026-04-16 15:28 38.77879 -9.13499 361 ft 19 kts 203°
2026-04-16 15:28 38.77757 -9.13565 358 ft 19 kts 203°
2026-04-16 15:28 38.77629 -9.13591 361 ft 20 kts 169°
2026-04-16 15:28 38.77484 -9.13554 353 ft 23 kts 168°
2026-04-16 15:29 38.77331 -9.13510 346 ft 22 kts 167°
2026-04-16 15:29 38.77181 -9.13471 345 ft 22 kts 169°
2026-04-16 15:29 38.77036 -9.13432 348 ft 21 kts 167°
2026-04-16 15:29 38.76888 -9.13393 342 ft 22 kts 168°
2026-04-16 15:30 38.76767 -9.13371 346 ft 13 kts 196°
2026-04-16 15:30 38.76694 -9.13428 349 ft 12 kts 213°
2026-04-16 15:30 38.76648 -9.13524 346 ft 16 kts 258°
2026-04-16 15:30 38.76611 -9.13659 352 ft 14 kts 206°
2026-04-16 15:31 38.76532 -9.13653 349 ft 10 kts 170°
2026-04-16 15:31 38.76483 -9.13640 349 ft 3 kts 168°
2026-04-16 15:31 38.76474 -9.13638 350 ft 0 kts 168°